Baku airport (UBBB)

baku-airport

Baku International Airport

Heydar Aliyev International Airport is the main international airport in Azerbaijan located 20 km (12 mi) northeast of the capital Baku. The airport is the home of Azerbaijan Airlines, the national flag carrier. It is the busiest airport in Azerbaijan and of the Caucasus.

ICAO: UBBB, IATA: GYD

Charts: Jeppesen

Sceneries: freeware demos w. reduced resolution

 fs9     fsx     Prepar

payware: http://www.drzewiecki-design.net/

METAR:

UBBB 061600Z 00000KT 9999 -RA OVC025 04/02 Q1032 NOSIG

TAF COR UBBB 061042Z 0612/0712 09006KT 9999 OVC025 TX04/0612Z TN01/0702Z TEMPO 0612/0621 05014KT -RA SCT007 OVC020 TEMPO 0621/0710 13008KT SCT012